Location: Godiavel Galaoual
(15.2485°N, 12.6604°W)
Time: 02:44:15
(UTC+00:00)

AO-73 - Visible Passes

Search period start: 26 July 2021 00:00
Search period end: 05 August 2021 00:00
Orbit: 580 x 662 km, 97.6° (Epoch: 25 July)

Date Brightness Start Highest point End Pass type
(mag) Time Alt. Az. Time Alt. Az. Time Alt. Az.
26 Jul ? 04:56:36 10° NE 05:00:40 35° E 05:04:48 10° SSE visible
27 Jul ? 05:13:58 10° NNE 05:18:23 62° E 05:22:52 10° S visible
28 Jul ? 05:31:37 10° N 05:36:06 74° W 05:40:36 10° SSW visible
29 Jul ? 05:49:33 10° N 05:53:46 41° WNW 05:58:03 10° SSW visible
30 Jul ? 04:32:34 10° ENE 04:35:29 17° E 04:38:24 10° SE visible
31 Jul ? 04:49:19 10° NE 04:53:13 29° E 04:57:09 10° SSE visible
01 Aug ? 05:06:34 10° NNE 05:10:56 50° E 05:15:21 10° S visible
02 Aug ? 05:24:07 10° NNE 05:28:38 89° E 05:33:12 10° SSW visible
03 Aug ? 05:41:56 10° N 05:46:20 51° WNW 05:50:45 10° SSW visible
04 Aug ? 04:25:40 10° ENE 04:27:59 14° E 04:30:19 10° SE visible
04 Aug ? 06:00:03 10° NNW 06:03:59 30° WNW 06:07:56 10° SW visible
